Tracking 34717 objects as of 14-Jul-2026
HD Live streaming from Space Station
objects crossing your sky now

USA 450

Track USA 450 now!
10-day predictions


NORAD ID: 62349
Int'l Code: 2024-243K
Perigee: 582.1 km
Apogee: 586.3 km
Inclination: 70.0 °
Period: 96.2 minutes
Semi major axis: 6955 km
RCS: Unknown
Launch date: December 17, 2024
Source: United States (US)
Launch site: AIR FORCE WESTERN TEST RANGE (AFWTR)
Your satellite tracking list
Your tracking list is empty




NASA's NSSDC Master Catalog

Two Line Element Set (TLE):
1 62349U 24243K   26181.04262113 0.00000000  00000-0  00000-0 0    09
2 62349  70.0102 264.6566 0003000 194.1804 165.8196 14.96713548    05
Source of the keplerian elements: McCants